Powrót do katalogu

ONEWEB-0083

AktywnyŁącznośćPO
NORAD 45435·PAYLOAD·🇬🇧 United Kingdom

Wystrzelony Mar 21, 2020 z Baikonur Cosmodrome

Loading…

Następne Przeloty (najbliższe 24 godziny)

TLE

ŚwieżeSource: CelesTrak SupGP

Epoka: Sep 14, 2026, 21:04 UTC

1 45435C 20020M   26257.87791667 -.00002352  00000+0 -66456-2 0  2577
2 45435  87.8973   3.2344 0001774 100.7316   0.0857 13.11416208    16

Śledź ONEWEB-0083 w czasie rzeczywistym z AllMySat

Download on the App Store